Private Wetterstation Wechselburg
Wetterdaten: Sonntag, 15.09.2013
Datum Zeit Temp. +2m Bodentemp. Temp.+5cm Temp. Wind Windchill X Diff Temp. Feuchte +2m Feuchte +5cm Sonnenschein Luftdruck Regen Wind Richtung Richtung Sonnenschein UV Taupunkt Windchill Windben
15.09.2013 00:00 15,1 C 23,0 C 15,5 C 15,4 C 15,4 C 0,3 C 85 % 82 % 0 % 1011,2 hPa 0,0 l/m 0,0 km/h (0 Bft) SO 135 0 min 0,0 UV-I 12,6 C 15,4 C 0,0 km/h (0 Bft)
15.09.2013 00:05 15,1 C 23,0 C 15,4 C 15,4 C 15,4 C 0,3 C 85 % 82 % 0 % 1011,2 hPa 0,0 l/m 0,0 km/h (0 Bft) O 90 0 min 0,0 UV-I 12,6 C 15,4 C 0,0 km/h (0 Bft)
15.09.2013 00:10 15,1 C 23,0 C 15,5 C 15,2 C 15,2 C 0,1 C 85 % 82 % 0 % 1011,2 hPa 0,0 l/m 0,0 km/h (0 Bft) SW 225 0 min 0,0 UV-I 12,6 C 15,2 C 0,0 km/h (0 Bft)
15.09.2013 00:15 15,1 C 23,0 C 15,5 C 15,2 C 15,2 C 0,1 C 85 % 83 % 0 % 1010,9 hPa 0,0 l/m 0,2 km/h (0 Bft) S 180 0 min 0,0 UV-I 12,6 C 15,2 C 0,0 km/h (0 Bft)
15.09.2013 00:20 15,1 C 23,0 C 15,5 C 15,3 C 15,3 C 0,2 C 85 % 83 % 0 % 1010,9 hPa 0,0 l/m 0,2 km/h (0 Bft) SW 225 0 min 0,0 UV-I 12,6 C 15,3 C 0,0 km/h (0 Bft)
15.09.2013 00:25 14,9 C 23,0 C 15,5 C 15,4 C 15,4 C 0,5 C 85 % 83 % 0 % 1010,9 hPa 0,0 l/m 0,2 km/h (0 Bft) W-SW 247 0 min 0,0 UV-I 12,4 C 15,4 C 3,9 km/h (1 Bft)
15.09.2013 00:30 14,9 C 23,0 C 15,4 C 15,5 C 15,5 C 0,6 C 85 % 83 % 0 % 1010,9 hPa 0,0 l/m 0,2 km/h (0 Bft) S 180 0 min 0,0 UV-I 12,4 C 15,5 C 0,0 km/h (0 Bft)
15.09.2013 00:35 14,9 C 23,0 C 15,4 C 15,6 C 15,6 C 0,7 C 85 % 83 % 0 % 1010,6 hPa 0,0 l/m 0,2 km/h (0 Bft) SO 135 0 min 0,0 UV-I 12,4 C 15,6 C 0,0 km/h (0 Bft)
15.09.2013 00:40 14,9 C 23,0 C 15,5 C 15,6 C 15,6 C 0,7 C 85 % 83 % 0 % 1010,6 hPa 0,0 l/m 0,0 km/h (0 Bft) S 180 0 min 0,0 UV-I 12,4 C 15,6 C 0,0 km/h (0 Bft)
15.09.2013 00:45 14,8 C 23,0 C 15,5 C 15,7 C 15,7 C 0,9 C 85 % 83 % 0 % 1010,6 hPa 0,0 l/m 0,0 km/h (0 Bft) NO 45 0 min 0,0 UV-I 12,3 C 15,7 C 0,0 km/h (0 Bft)
15.09.2013 00:50 14,9 C 23,0 C 15,5 C 15,7 C 15,7 C 0,8 C 85 % 83 % 0 % 1010,6 hPa 0,0 l/m 0,0 km/h (0 Bft) S 180 0 min 0,0 UV-I 12,4 C 15,7 C 0,0 km/h (0 Bft)
15.09.2013 00:55 14,8 C 23,0 C 15,5 C 15,7 C 15,7 C 0,9 C 85 % 83 % 0 % 1010,7 hPa 0,0 l/m 0,0 km/h (0 Bft) W-SW 247 0 min 0,0 UV-I 12,3 C 15,7 C 1,6 km/h (1 Bft)
15.09.2013 01:00 14,9 C 23,0 C 15,6 C 15,6 C 15,6 C 0,7 C 85 % 83 % 0 % 1010,7 hPa 0,0 l/m 1,0 km/h (0 Bft) S 180 0 min 0,0 UV-I 12,4 C 15,6 C 6,0 km/h (2 Bft)
15.09.2013 01:05 14,9 C 23,1 C 15,6 C 15,5 C 15,5 C 0,6 C 86 % 83 % 0 % 1010,7 hPa 0,0 l/m 1,8 km/h (1 Bft) W-SW 247 0 min 0,0 UV-I 12,6 C 15,5 C 4,8 km/h (1 Bft)
15.09.2013 01:10 14,9 C 23,2 C 15,7 C 15,3 C 15,3 C 0,4 C 86 % 83 % 0 % 1010,7 hPa 0,0 l/m 1,3 km/h (1 Bft) W-SW 247 0 min 0,0 UV-I 12,6 C 15,3 C 8,0 km/h (2 Bft)
15.09.2013 01:15 14,8 C 23,2 C 15,6 C 15,2 C 15,2 C 0,4 C 86 % 83 % 0 % 1010,4 hPa 0,0 l/m 0,5 km/h (0 Bft) W 270 0 min 0,0 UV-I 12,5 C 15,2 C 0,0 km/h (0 Bft)
15.09.2013 01:20 14,8 C 23,3 C 15,6 C 15,1 C 15,1 C 0,3 C 86 % 83 % 0 % 1010,4 hPa 0,0 l/m 0,3 km/h (0 Bft) S-SO 157 0 min 0,0 UV-I 12,5 C 15,1 C 0,0 km/h (0 Bft)
15.09.2013 01:25 14,8 C 23,3 C 15,5 C 15,1 C 15,1 C 0,3 C 87 % 83 % 0 % 1010,4 hPa 0,0 l/m 0,3 km/h (0 Bft) SW 225 0 min 0,0 UV-I 12,7 C 15,1 C 0,0 km/h (0 Bft)
15.09.2013 01:30 14,7 C 23,3 C 15,5 C 15,1 C 15,1 C 0,4 C 87 % 83 % 0 % 1010,4 hPa 0,0 l/m 0,2 km/h (0 Bft) S 180 0 min 0,0 UV-I 12,6 C 15,1 C 0,0 km/h (0 Bft)
15.09.2013 01:35 14,7 C 23,3 C 15,5 C 15,1 C 15,1 C 0,4 C 87 % 83 % 0 % 1010,3 hPa 0,0 l/m 1,0 km/h (0 Bft) W-SW 247 0 min 0,0 UV-I 12,6 C 15,1 C 3,4 km/h (1 Bft)
15.09.2013 01:40 14,6 C 23,3 C 15,5 C 15,1 C 15,1 C 0,5 C 87 % 83 % 0 % 1010,3 hPa 0,0 l/m 1,4 km/h (1 Bft) SW 225 0 min 0,0 UV-I 12,5 C 15,1 C 0,0 km/h (0 Bft)
15.09.2013 01:45 14,7 C 23,2 C 15,5 C 15,1 C 15,1 C 0,4 C 87 % 83 % 0 % 1010,3 hPa 0,0 l/m 1,8 km/h (1 Bft) W-SW 247 0 min 0,0 UV-I 12,6 C 15,1 C 3,7 km/h (1 Bft)
15.09.2013 01:50 14,7 C 23,2 C 15,5 C 15,2 C 15,2 C 0,5 C 87 % 83 % 0 % 1010,3 hPa 0,0 l/m 2,3 km/h (1 Bft) W 270 0 min 0,0 UV-I 12,6 C 15,2 C 2,4 km/h (1 Bft)
15.09.2013 01:55 14,7 C 23,2 C 15,5 C 15,2 C 15,2 C 0,5 C 87 % 83 % 0 % 1010,7 hPa 0,0 l/m 2,6 km/h (1 Bft) SW 225 0 min 0,0 UV-I 12,6 C 15,2 C 4,3 km/h (1 Bft)
15.09.2013 02:00 14,7 C 23,2 C 15,5 C 15,2 C 15,2 C 0,5 C 87 % 83 % 0 % 1010,7 hPa 0,0 l/m 1,0 km/h (0 Bft) O-SO 112 0 min 0,0 UV-I 12,6 C 15,2 C 0,0 km/h (0 Bft)
15.09.2013 02:05 14,7 C 23,3 C 15,5 C 15,2 C 15,2 C 0,5 C 87 % 83 % 0 % 1010,7 hPa 0,0 l/m 0,5 km/h (0 Bft) NW 315 0 min 0,0 UV-I 12,6 C 15,2 C 0,0 km/h (0 Bft)
15.09.2013 02:10 14,6 C 23,2 C 15,5 C 15,2 C 15,2 C 0,6 C 87 % 83 % 0 % 1010,7 hPa 0,0 l/m 0,2 km/h (0 Bft) W-SW 247 0 min 0,0 UV-I 12,5 C 15,2 C 2,1 km/h (1 Bft)
15.09.2013 02:15 14,6 C 23,2 C 15,5 C 15,1 C 15,1 C 0,5 C 87 % 83 % 0 % 1010,4 hPa 0,0 l/m 0,3 km/h (0 Bft) W-NW 292 0 min 0,0 UV-I 12,5 C 15,1 C 2,3 km/h (1 Bft)
15.09.2013 02:20 14,5 C 23,2 C 15,4 C 15,1 C 15,1 C 0,6 C 87 % 83 % 0 % 1010,4 hPa 0,0 l/m 0,5 km/h (0 Bft) W-SW 247 0 min 0,0 UV-I 12,4 C 15,1 C 0,0 km/h (0 Bft)
15.09.2013 02:25 14,5 C 23,2 C 15,5 C 15,1 C 15,1 C 0,6 C 87 % 83 % 0 % 1010,4 hPa 0,0 l/m 0,3 km/h (0 Bft) S-SO 157 0 min 0,0 UV-I 12,4 C 15,1 C 0,0 km/h (0 Bft)
15.09.2013 02:30 14,5 C 23,1 C 15,5 C 15,0 C 15,0 C 0,5 C 87 % 83 % 0 % 1010,4 hPa 0,0 l/m 0,2 km/h (0 Bft) S-SO 157 0 min 0,0 UV-I 12,4 C 15,0 C 0,0 km/h (0 Bft)
15.09.2013 02:35 14,5 C 23,1 C 15,5 C 15,0 C 15,0 C 0,5 C 87 % 83 % 0 % 1010,4 hPa 0,0 l/m 0,0 km/h (0 Bft) O 90 0 min 0,0 UV-I 12,4 C 15,0 C 0,0 km/h (0 Bft)
15.09.2013 02:40 14,4 C 23,1 C 15,5 C 15,0 C 15,0 C 0,6 C 87 % 83 % 0 % 1010,4 hPa 0,0 l/m 0,2 km/h (0 Bft) W-SW 247 0 min 0,0 UV-I 12,3 C 15,0 C 0,0 km/h (0 Bft)
15.09.2013 02:45 14,4 C 23,1 C 15,4 C 15,0 C 15,0 C 0,6 C 87 % 83 % 0 % 1010,4 hPa 0,0 l/m 0,3 km/h (0 Bft) S-SO 157 0 min 0,0 UV-I 12,3 C 15,0 C 0,0 km/h (0 Bft)
15.09.2013 02:50 14,5 C 23,1 C 15,3 C 14,9 C 14,9 C 0,4 C 87 % 83 % 0 % 1010,4 hPa 0,0 l/m 0,3 km/h (0 Bft) S 180 0 min 0,0 UV-I 12,4 C 14,9 C 0,0 km/h (0 Bft)
15.09.2013 02:55 14,5 C 23,1 C 15,2 C 14,7 C 14,7 C 0,2 C 87 % 83 % 0 % 1010,2 hPa 0,0 l/m 0,3 km/h (0 Bft) S-SO 157 0 min 0,0 UV-I 12,4 C 14,7 C 0,0 km/h (0 Bft)
15.09.2013 03:00 14,3 C 23,1 C 15,1 C 14,6 C 14,6 C 0,3 C 87 % 83 % 0 % 1010,2 hPa 0,0 l/m 0,0 km/h (0 Bft) SO 135 0 min 0,0 UV-I 12,2 C 14,6 C 0,0 km/h (0 Bft)
15.09.2013 03:05 14,3 C 23,1 C 15,1 C 14,5 C 14,5 C 0,2 C 87 % 83 % 0 % 1010,2 hPa 0,0 l/m 0,0 km/h (0 Bft) S-SO 157 0 min 0,0 UV-I 12,2 C 14,5 C 0,0 km/h (0 Bft)
15.09.2013 03:10 14,3 C 23,1 C 15,1 C 14,4 C 14,4 C 0,1 C 87 % 83 % 0 % 1010,2 hPa 0,0 l/m 0,0 km/h (0 Bft) W-NW 292 0 min 0,0 UV-I 12,2 C 14,4 C 0,0 km/h (0 Bft)
15.09.2013 03:15 14,1 C 23,2 C 14,9 C 14,2 C 14,2 C 0,1 C 87 % 83 % 0 % 1010,2 hPa 0,0 l/m 0,0 km/h (0 Bft) O 90 0 min 0,0 UV-I 12,0 C 14,2 C 0,0 km/h (0 Bft)
15.09.2013 03:20 14,0 C 23,2 C 14,8 C 14,2 C 14,2 C 0,2 C 87 % 83 % 0 % 1010,2 hPa 0,0 l/m 0,0 km/h (0 Bft) W-SW 247 0 min 0,0 UV-I 11,9 C 14,2 C 0,0 km/h (0 Bft)
15.09.2013 03:25 14,0 C 23,2 C 14,8 C 14,1 C 14,1 C 0,1 C 87 % 83 % 0 % 1010,2 hPa 0,0 l/m 0,0 km/h (0 Bft) SO 135 0 min 0,0 UV-I 11,9 C 14,1 C 0,0 km/h (0 Bft)
15.09.2013 03:30 14,0 C 23,2 C 14,8 C 14,1 C 14,1 C 0,1 C 87 % 83 % 0 % 1010,2 hPa 0,0 l/m 0,2 km/h (0 Bft) SW 225 0 min 0,0 UV-I 11,9 C 14,1 C 0,0 km/h (0 Bft)
15.09.2013 03:35 14,0 C 23,2 C 14,8 C 14,1 C 14,1 C 0,1 C 87 % 83 % 0 % 1010,1 hPa 0,0 l/m 0,2 km/h (0 Bft) S 180 0 min 0,0 UV-I 11,9 C 14,1 C 0,0 km/h (0 Bft)
15.09.2013 03:40 13,9 C 23,2 C 14,7 C 14,0 C 14,0 C 0,1 C 87 % 83 % 0 % 1010,1 hPa 0,0 l/m 0,2 km/h (0 Bft) S 180 0 min 0,0 UV-I 11,8 C 14,0 C 2,7 km/h (1 Bft)
15.09.2013 03:45 13,9 C 23,2 C 14,7 C 14,0 C 14,0 C 0,1 C 87 % 83 % 0 % 1010,1 hPa 0,0 l/m 0,2 km/h (0 Bft) SW 225 0 min 0,0 UV-I 11,8 C 14,0 C 0,0 km/h (0 Bft)
15.09.2013 03:50 13,8 C 23,2 C 14,7 C 14,0 C 14,0 C 0,2 C 88 % 83 % 0 % 1010,1 hPa 0,0 l/m 0,3 km/h (0 Bft) S 180 0 min 0,0 UV-I 11,8 C 14,0 C 0,0 km/h (0 Bft)
15.09.2013 03:55 13,8 C 23,1 C 14,9 C 14,2 C 14,2 C 0,4 C 88 % 83 % 0 % 1010,2 hPa 0,0 l/m 1,0 km/h (0 Bft) SW 225 0 min 0,0 UV-I 11,8 C 14,2 C 4,7 km/h (1 Bft)
15.09.2013 04:00 13,9 C 23,0 C 14,9 C 14,5 C 14,5 C 0,6 C 88 % 83 % 0 % 1010,2 hPa 0,0 l/m 2,7 km/h (1 Bft) W 270 0 min 0,0 UV-I 11,9 C 14,5 C 10,8 km/h (2 Bft)
15.09.2013 04:05 13,9 C 23,0 C 15,0 C 14,7 C 14,7 C 0,8 C 88 % 83 % 0 % 1010,2 hPa 0,0 l/m 4,0 km/h (1 Bft) W 270 0 min 0,0 UV-I 11,9 C 14,7 C 5,3 km/h (1 Bft)
15.09.2013 04:10 14,1 C 23,0 C 14,9 C 14,9 C 14,9 C 0,8 C 88 % 83 % 0 % 1010,2 hPa 0,0 l/m 3,9 km/h (1 Bft) W 270 0 min 0,0 UV-I 12,1 C 14,9 C 4,8 km/h (1 Bft)
15.09.2013 04:15 14,0 C 23,0 C 14,9 C 14,8 C 14,8 C 0,8 C 87 % 83 % 0 % 1009,9 hPa 0,0 l/m 3,4 km/h (1 Bft) W-SW 247 0 min 0,0 UV-I 11,9 C 14,8 C 4,0 km/h (1 Bft)
15.09.2013 04:20 14,1 C 23,0 C 14,9 C 14,9 C 14,9 C 0,8 C 87 % 83 % 0 % 1009,9 hPa 0,0 l/m 4,2 km/h (1 Bft) SW 225 0 min 0,0 UV-I 12,0 C 14,9 C 7,9 km/h (2 Bft)
15.09.2013 04:25 14,2 C 23,0 C 14,9 C 14,9 C 14,9 C 0,7 C 87 % 83 % 0 % 1009,9 hPa 0,0 l/m 4,5 km/h (1 Bft) S-SW 202 0 min 0,0 UV-I 12,1 C 14,9 C 6,1 km/h (2 Bft)
15.09.2013 04:30 14,3 C 22,9 C 14,9 C 15,0 C 15,0 C 0,7 C 86 % 83 % 0 % 1009,9 hPa 0,0 l/m 4,2 km/h (1 Bft) W-NW 292 0 min 0,0 UV-I 12,0 C 15,0 C 3,9 km/h (1 Bft)
15.09.2013 04:35 14,3 C 23,0 C 14,9 C 15,0 C 15,0 C 0,7 C 86 % 82 % 0 % 1009,8 hPa 0,0 l/m 3,7 km/h (1 Bft) W-SW 247 0 min 0,0 UV-I 12,0 C 15,0 C 3,2 km/h (1 Bft)
15.09.2013 04:40 14,3 C 23,0 C 14,9 C 15,0 C 15,0 C 0,7 C 86 % 82 % 0 % 1009,8 hPa 0,0 l/m 2,9 km/h (1 Bft) W-SW 247 0 min 0,0 UV-I 12,0 C 15,0 C 3,2 km/h (1 Bft)
15.09.2013 04:45 14,4 C 23,0 C 14,9 C 14,9 C 14,9 C 0,5 C 86 % 82 % 0 % 1009,8 hPa 0,0 l/m 3,1 km/h (1 Bft) SW 225 0 min 0,0 UV-I 12,1 C 14,9 C 5,5 km/h (1 Bft)
15.09.2013 04:50 14,4 C 22,9 C 14,9 C 14,9 C 14,9 C 0,5 C 86 % 82 % 0 % 1009,8 hPa 0,0 l/m 3,2 km/h (1 Bft) W-NW 292 0 min 0,0 UV-I 12,1 C 14,9 C 4,5 km/h (1 Bft)
15.09.2013 04:55 14,4 C 22,9 C 14,8 C 14,9 C 14,9 C 0,5 C 85 % 82 % 0 % 1009,8 hPa 0,0 l/m 3,9 km/h (1 Bft) W 270 0 min 0,0 UV-I 11,9 C 14,9 C 8,0 km/h (2 Bft)
15.09.2013 05:00 14,4 C 22,9 C 14,8 C 14,9 C 14,9 C 0,5 C 85 % 82 % 0 % 1009,8 hPa 0,0 l/m 4,3 km/h (1 Bft) W-NW 292 0 min 0,0 UV-I 11,9 C 14,9 C 4,5 km/h (1 Bft)
15.09.2013 05:05 14,5 C 22,9 C 14,9 C 15,0 C 15,0 C 0,5 C 85 % 82 % 0 % 1009,8 hPa 0,0 l/m 4,5 km/h (1 Bft) W-SW 247 0 min 0,0 UV-I 12,0 C 15,0 C 6,1 km/h (2 Bft)
15.09.2013 05:10 14,4 C 22,9 C 14,8 C 15,0 C 15,0 C 0,6 C 85 % 82 % 0 % 1009,8 hPa 0,0 l/m 4,0 km/h (1 Bft) W 270 0 min 0,0 UV-I 11,9 C 15,0 C 4,8 km/h (1 Bft)
15.09.2013 05:15 14,4 C 22,9 C 14,9 C 15,0 C 15,0 C 0,6 C 85 % 82 % 0 % 1009,6 hPa 0,0 l/m 3,5 km/h (1 Bft) W-SW 247 0 min 0,0 UV-I 11,9 C 15,0 C 4,5 km/h (1 Bft)
15.09.2013 05:20 14,5 C 23,0 C 14,9 C 14,9 C 14,9 C 0,4 C 85 % 82 % 0 % 1009,6 hPa 0,0 l/m 3,1 km/h (1 Bft) S 180 0 min 0,0 UV-I 12,0 C 14,9 C 4,0 km/h (1 Bft)
15.09.2013 05:25 14,5 C 23,0 C 14,9 C 14,9 C 14,9 C 0,4 C 85 % 82 % 0 % 1009,6 hPa 0,0 l/m 3,4 km/h (1 Bft) S-SW 202 0 min 0,0 UV-I 12,0 C 14,9 C 4,8 km/h (1 Bft)
15.09.2013 05:30 14,5 C 22,9 C 14,9 C 14,9 C 14,9 C 0,4 C 85 % 82 % 0 % 1009,6 hPa 0,0 l/m 3,2 km/h (1 Bft) S-SW 202 0 min 0,0 UV-I 12,0 C 14,9 C 3,7 km/h (1 Bft)
15.09.2013 05:35 14,5 C 22,9 C 14,9 C 15,0 C 15,0 C 0,5 C 85 % 82 % 0 % 1009,4 hPa 0,0 l/m 3,7 km/h (1 Bft) W-SW 247 0 min 0,0 UV-I 12,0 C 15,0 C 6,6 km/h (2 Bft)
15.09.2013 05:40 14,4 C 22,9 C 14,9 C 15,1 C 15,1 C 0,7 C 85 % 82 % 0 % 1009,4 hPa 0,0 l/m 4,0 km/h (1 Bft) W-SW 247 0 min 0,0 UV-I 11,9 C 15,1 C 7,6 km/h (2 Bft)
15.09.2013 05:45 14,4 C 22,9 C 14,9 C 15,1 C 15,1 C 0,7 C 85 % 82 % 0 % 1009,4 hPa 0,0 l/m 4,2 km/h (1 Bft) NW 315 0 min 0,0 UV-I 11,9 C 15,1 C 5,5 km/h (1 Bft)
15.09.2013 05:50 14,5 C 22,9 C 14,9 C 15,1 C 15,1 C 0,6 C 85 % 82 % 0 % 1009,4 hPa 0,0 l/m 4,5 km/h (1 Bft) W-SW 247 0 min 0,0 UV-I 12,0 C 15,1 C 5,0 km/h (1 Bft)
15.09.2013 05:55 14,5 C 22,9 C 14,9 C 15,1 C 15,1 C 0,6 C 85 % 82 % 0 % 1009,4 hPa 0,0 l/m 3,9 km/h (1 Bft) SW 225 0 min 0,0 UV-I 12,0 C 15,1 C 7,1 km/h (2 Bft)
15.09.2013 06:00 14,5 C 22,9 C 14,9 C 15,0 C 15,0 C 0,5 C 84 % 82 % 0 % 1009,4 hPa 0,0 l/m 3,7 km/h (1 Bft) O-NO 67 0 min 0,0 UV-I 11,8 C 15,0 C 3,2 km/h (1 Bft)
15.09.2013 06:05 14,5 C 22,9 C 14,8 C 15,0 C 15,0 C 0,5 C 84 % 82 % 0 % 1009,4 hPa 0,0 l/m 3,9 km/h (1 Bft) S 180 0 min 0,0 UV-I 11,8 C 15,0 C 3,2 km/h (1 Bft)
15.09.2013 06:10 14,4 C 22,9 C 14,9 C 15,0 C 15,0 C 0,6 C 84 % 82 % 0 % 1009,4 hPa 0,0 l/m 3,7 km/h (1 Bft) S-SW 202 0 min 0,0 UV-I 11,7 C 15,0 C 4,7 km/h (1 Bft)
15.09.2013 06:15 14,5 C 22,9 C 14,9 C 14,9 C 14,9 C 0,4 C 84 % 82 % 0 % 1009,6 hPa 0,0 l/m 3,4 km/h (1 Bft) SW 225 0 min 0,0 UV-I 11,8 C 14,9 C 6,1 km/h (2 Bft)
15.09.2013 06:20 14,4 C 22,9 C 14,8 C 14,8 C 14,8 C 0,4 C 84 % 82 % 0 % 1009,6 hPa 0,0 l/m 3,4 km/h (1 Bft) S 180 0 min 0,0 UV-I 11,7 C 14,8 C 5,6 km/h (1 Bft)
15.09.2013 06:25 14,4 C 22,9 C 14,7 C 14,7 C 14,7 C 0,3 C 84 % 82 % 0 % 1009,6 hPa 0,0 l/m 3,4 km/h (1 Bft) S 180 0 min 0,0 UV-I 11,7 C 14,7 C 4,3 km/h (1 Bft)
15.09.2013 06:30 14,3 C 22,9 C 14,7 C 14,7 C 14,7 C 0,4 C 84 % 82 % 0 % 1009,6 hPa 0,0 l/m 3,1 km/h (1 Bft) W-SW 247 0 min 0,0 UV-I 11,6 C 14,7 C 2,3 km/h (1 Bft)
15.09.2013 06:35 14,3 C 22,8 C 14,7 C 14,6 C 14,6 C 0,3 C 83 % 82 % 0 % 1009,8 hPa 0,0 l/m 3,2 km/h (1 Bft) W-SW 247 0 min 0,0 UV-I 11,5 C 14,6 C 6,9 km/h (2 Bft)
15.09.2013 06:40 14,2 C 22,8 C 14,7 C 14,6 C 14,6 C 0,4 C 83 % 82 % 0 % 1009,8 hPa 0,0 l/m 3,7 km/h (1 Bft) S-SW 202 0 min 0,0 UV-I 11,4 C 14,6 C 3,5 km/h (1 Bft)
15.09.2013 06:45 14,3 C 22,8 C 14,6 C 14,5 C 14,5 C 0,2 C 83 % 82 % 0 % 1009,8 hPa 0,0 l/m 4,0 km/h (1 Bft) W-SW 247 0 min 0,0 UV-I 11,5 C 14,5 C 5,8 km/h (2 Bft)
15.09.2013 06:50 14,1 C 22,8 C 14,5 C 14,5 C 14,5 C 0,4 C 84 % 82 % 0 % 1009,8 hPa 0,0 l/m 3,9 km/h (1 Bft) S 180 0 min 0,0 UV-I 11,4 C 14,5 C 7,7 km/h (2 Bft)
15.09.2013 06:55 14,1 C 22,8 C 14,4 C 14,4 C 14,4 C 0,3 C 83 % 82 % 8 % 1009,9 hPa 0,0 l/m 3,4 km/h (1 Bft) SW 225 5 min 0,0 UV-I 11,3 C 14,4 C 1,9 km/h (1 Bft)
15.09.2013 07:00 14,1 C 22,8 C 14,5 C 14,3 C 14,3 C 0,2 C 84 % 82 % 5 % 1009,9 hPa 0,0 l/m 2,6 km/h (1 Bft) S-SO 157 0 min 0,0 UV-I 11,4 C 14,3 C 2,9 km/h (1 Bft)
15.09.2013 07:05 14,0 C 22,8 C 14,4 C 14,3 C 14,3 C 0,3 C 84 % 82 % 8 % 1009,9 hPa 0,0 l/m 2,7 km/h (1 Bft) W-SW 247 0 min 0,0 UV-I 11,3 C 14,3 C 4,0 km/h (1 Bft)
15.09.2013 07:10 13,9 C 22,8 C 14,4 C 14,2 C 14,2 C 0,3 C 84 % 82 % 8 % 1009,9 hPa 0,0 l/m 2,6 km/h (1 Bft) SW 225 0 min 0,0 UV-I 11,2 C 14,2 C 2,6 km/h (1 Bft)
15.09.2013 07:15 13,9 C 22,8 C 14,3 C 14,2 C 14,2 C 0,3 C 84 % 82 % 8 % 1010,0 hPa 0,0 l/m 2,7 km/h (1 Bft) W 270 0 min 0,0 UV-I 11,2 C 14,2 C 1,8 km/h (1 Bft)
15.09.2013 07:20 13,9 C 22,9 C 14,3 C 14,2 C 14,2 C 0,3 C 84 % 82 % 8 % 1010,0 hPa 0,0 l/m 2,7 km/h (1 Bft) W-SW 247 0 min 0,0 UV-I 11,2 C 14,2 C 3,7 km/h (1 Bft)
15.09.2013 07:25 13,9 C 22,9 C 14,3 C 14,2 C 14,2 C 0,3 C 84 % 82 % 8 % 1010,0 hPa 0,0 l/m 2,3 km/h (1 Bft) S-SO 157 0 min 0,0 UV-I 11,2 C 14,2 C 0,0 km/h (0 Bft)
15.09.2013 07:30 13,7 C 22,9 C 14,3 C 14,2 C 14,2 C 0,5 C 84 % 82 % 13 % 1010,0 hPa 0,0 l/m 1,3 km/h (1 Bft) W 270 0 min 0,0 UV-I 11,0 C 14,2 C 0,0 km/h (0 Bft)
15.09.2013 07:35 13,7 C 22,9 C 14,3 C 14,2 C 14,2 C 0,5 C 84 % 82 % 13 % 1009,8 hPa 0,0 l/m 0,2 km/h (0 Bft) W-SW 247 0 min 0,0 UV-I 11,0 C 14,2 C 0,0 km/h (0 Bft)
15.09.2013 07:40 13,7 C 22,9 C 14,3 C 14,3 C 14,3 C 0,6 C 84 % 82 % 16 % 1009,8 hPa 0,0 l/m 0,5 km/h (0 Bft) W 270 0 min 0,0 UV-I 11,0 C 14,3 C 1,9 km/h (1 Bft)
15.09.2013 07:45 13,7 C 22,9 C 14,3 C 14,3 C 14,3 C 0,6 C 84 % 82 % 16 % 1009,8 hPa 0,0 l/m 0,6 km/h (0 Bft) SW 225 0 min 0,0 UV-I 11,0 C 14,3 C 0,0 km/h (0 Bft)
15.09.2013 07:50 13,7 C 22,9 C 14,3 C 14,4 C 14,4 C 0,7 C 84 % 82 % 18 % 1009,8 hPa 0,0 l/m 1,3 km/h (1 Bft) W-SW 247 0 min 0,0 UV-I 11,0 C 14,4 C 1,8 km/h (1 Bft)
15.09.2013 07:55 13,7 C 22,9 C 14,4 C 14,4 C 14,4 C 0,7 C 84 % 82 % 18 % 1010,1 hPa 0,0 l/m 2,1 km/h (1 Bft) W 270 0 min 0,0 UV-I 11,0 C 14,4 C 5,0 km/h (1 Bft)
15.09.2013 08:00 13,6 C 22,9 C 14,3 C 14,4 C 14,4 C 0,8 C 84 % 82 % 21 % 1010,1 hPa 0,0 l/m 2,1 km/h (1 Bft) W-SW 247 0 min 0,0 UV-I 10,9 C 14,4 C 2,3 km/h (1 Bft)
15.09.2013 08:05 13,6 C 22,9 C 14,4 C 14,4 C 14,4 C 0,8 C 84 % 82 % 21 % 1010,1 hPa 0,0 l/m 2,1 km/h (1 Bft) S-SW 202 0 min 0,0 UV-I 10,9 C 14,4 C 0,0 km/h (0 Bft)
15.09.2013 08:10 13,7 C 22,9 C 14,4 C 14,4 C 14,4 C 0,7 C 84 % 82 % 18 % 1010,1 hPa 0,0 l/m 2,1 km/h (1 Bft) SW 225 0 min 0,0 UV-I 11,0 C 14,4 C 1,8 km/h (1 Bft)
15.09.2013 08:15 13,7 C 22,9 C 14,3 C 14,5 C 14,5 C 0,8 C 84 % 82 % 21 % 1009,6 hPa 0,0 l/m 2,3 km/h (1 Bft) W-SW 247 0 min 0,0 UV-I 11,0 C 14,5 C 4,3 km/h (1 Bft)
15.09.2013 08:20 13,7 C 22,8 C 14,3 C 14,5 C 14,5 C 0,8 C 84 % 82 % 21 % 1009,6 hPa 0,0 l/m 3,2 km/h (1 Bft) NW 315 0 min 0,0 UV-I 11,0 C 14,5 C 5,3 km/h (1 Bft)
15.09.2013 08:25 13,7 C 22,8 C 14,4 C 14,5 C 14,5 C 0,8 C 84 % 82 % 21 % 1009,6 hPa 0,0 l/m 3,2 km/h (1 Bft) SW 225 0 min 0,0 UV-I 11,0 C 14,5 C 2,6 km/h (1 Bft)
15.09.2013 08:30 13,7 C 22,9 C 14,3 C 14,6 C 14,6 C 0,9 C 84 % 82 % 24 % 1009,6 hPa 0,0 l/m 2,6 km/h (1 Bft) S-SW 202 0 min 0,0 UV-I 11,0 C 14,6 C 0,0 km/h (0 Bft)
15.09.2013 08:35 13,7 C 22,8 C 14,4 C 14,6 C 14,6 C 0,9 C 84 % 82 % 24 % 1009,7 hPa 0,0 l/m 2,1 km/h (1 Bft) W 270 0 min 0,0 UV-I 11,0 C 14,6 C 2,1 km/h (1 Bft)
15.09.2013 08:40 13,7 C 22,8 C 14,4 C 14,7 C 14,7 C 1,0 C 84 % 82 % 26 % 1009,7 hPa 0,0 l/m 2,4 km/h (1 Bft) S 180 0 min 0,0 UV-I 11,0 C 14,7 C 1,6 km/h (1 Bft)
15.09.2013 08:45 13,7 C 22,8 C 14,3 C 14,7 C 14,7 C 1,0 C 84 % 82 % 26 % 1009,7 hPa 0,0 l/m 2,1 km/h (1 Bft) W 270 0 min 0,0 UV-I 11,0 C 14,7 C 0,0 km/h (0 Bft)
15.09.2013 08:50 13,7 C 22,8 C 14,4 C 14,7 C 14,7 C 1,0 C 84 % 82 % 26 % 1009,7 hPa 0,0 l/m 2,3 km/h (1 Bft) W-NW 292 0 min 0,0 UV-I 11,0 C 14,7 C 1,9 km/h (1 Bft)
15.09.2013 08:55 13,7 C 22,8 C 14,3 C 14,6 C 14,6 C 0,9 C 84 % 82 % 24 % 1009,9 hPa 0,0 l/m 2,4 km/h (1 Bft) W-SW 247 0 min 0,0 UV-I 11,0 C 14,6 C 2,4 km/h (1 Bft)
15.09.2013 09:00 13,7 C 22,8 C 14,5 C 14,7 C 14,7 C 1,0 C 84 % 82 % 26 % 1009,9 hPa 0,0 l/m 2,4 km/h (1 Bft) S 180 0 min 0,0 UV-I 11,0 C 14,7 C 4,0 km/h (1 Bft)
15.09.2013 09:05 13,8 C 22,8 C 14,4 C 14,7 C 14,7 C 0,9 C 84 % 82 % 24 % 1009,9 hPa 0,0 l/m 2,6 km/h (1 Bft) W 270 0 min 0,0 UV-I 11,1 C 14,7 C 3,2 km/h (1 Bft)
15.09.2013 09:10 13,8 C 22,8 C 14,5 C 14,9 C 14,9 C 1,1 C 84 % 82 % 29 % 1009,9 hPa 0,0 l/m 2,3 km/h (1 Bft) W-SW 247 0 min 0,0 UV-I 11,1 C 14,9 C 2,1 km/h (1 Bft)
15.09.2013 09:15 13,9 C 22,8 C 14,5 C 15,1 C 15,1 C 1,2 C 84 % 82 % 32 % 1009,9 hPa 0,0 l/m 2,1 km/h (1 Bft) SW 225 0 min 0,0 UV-I 11,2 C 15,1 C 5,5 km/h (1 Bft)
15.09.2013 09:20 13,9 C 22,8 C 14,6 C 15,3 C 15,3 C 1,4 C 84 % 82 % 37 % 1009,9 hPa 0,0 l/m 2,7 km/h (1 Bft) W-SW 247 0 min 0,0 UV-I 11,2 C 15,3 C 3,7 km/h (1 Bft)
15.09.2013 09:25 14,0 C 22,8 C 14,7 C 15,4 C 15,4 C 1,4 C 84 % 82 % 37 % 1009,9 hPa 0,0 l/m 2,6 km/h (1 Bft) W-NW 292 0 min 0,0 UV-I 11,3 C 15,4 C 2,9 km/h (1 Bft)
15.09.2013 09:30 14,0 C 22,8 C 14,6 C 15,4 C 15,4 C 1,4 C 83 % 82 % 37 % 1009,9 hPa 0,0 l/m 1,6 km/h (1 Bft) S-SW 202 0 min 0,0 UV-I 11,2 C 15,4 C 2,3 km/h (1 Bft)
15.09.2013 09:35 14,0 C 22,8 C 14,7 C 15,4 C 15,4 C 1,4 C 83 % 82 % 37 % 1009,8 hPa 0,0 l/m 2,3 km/h (1 Bft) NW 315 0 min 0,0 UV-I 11,2 C 15,4 C 1,9 km/h (1 Bft)
15.09.2013 09:40 14,0 C 22,8 C 14,9 C 15,4 C 15,4 C 1,4 C 83 % 81 % 37 % 1009,8 hPa 0,0 l/m 3,2 km/h (1 Bft) S-SW 202 0 min 0,0 UV-I 11,2 C 15,4 C 3,5 km/h (1 Bft)
15.09.2013 09:45 14,0 C 22,8 C 14,8 C 15,6 C 15,6 C 1,6 C 83 % 81 % 42 % 1009,8 hPa 0,0 l/m 3,1 km/h (1 Bft) S-SO 157 0 min 0,0 UV-I 11,2 C 15,6 C 2,9 km/h (1 Bft)
15.09.2013 09:50 14,1 C 22,7 C 14,9 C 15,7 C 15,7 C 1,6 C 83 % 81 % 42 % 1009,8 hPa 0,0 l/m 3,2 km/h (1 Bft) S 180 0 min 0,0 UV-I 11,3 C 15,7 C 10,6 km/h (2 Bft)
15.09.2013 09:55 14,1 C 22,8 C 14,9 C 15,7 C 15,7 C 1,6 C 83 % 81 % 42 % 1010,0 hPa 0,0 l/m 2,6 km/h (1 Bft) W-SW 247 0 min 0,0 UV-I 11,3 C 15,7 C 3,4 km/h (1 Bft)
15.09.2013 10:00 14,3 C 22,7 C 14,9 C 15,8 C 15,8 C 1,5 C 83 % 81 % 39 % 1010,0 hPa 0,0 l/m 2,7 km/h (1 Bft) S 180 0 min 0,0 UV-I 11,5 C 15,8 C 3,7 km/h (1 Bft)
15.09.2013 10:05 14,3 C 22,7 C 15,1 C 15,9 C 15,9 C 1,6 C 83 % 81 % 42 % 1010,0 hPa 0,0 l/m 3,4 km/h (1 Bft) SW 225 0 min 0,0 UV-I 11,5 C 15,9 C 2,3 km/h (1 Bft)
15.09.2013 10:10 14,4 C 22,7 C 15,1 C 16,1 C 16,1 C 1,7 C 83 % 81 % 45 % 1010,0 hPa 0,0 l/m 3,2 km/h (1 Bft) W 270 0 min 0,0 UV-I 11,5 C 16,1 C 2,6 km/h (1 Bft)
15.09.2013 10:15 14,5 C 22,7 C 15,3 C 16,5 C 16,5 C 2,0 C 82 % 80 % 53 % 1009,9 hPa 0,0 l/m 3,2 km/h (1 Bft) S 180 0 min 0,0 UV-I 11,5 C 16,5 C 5,8 km/h (2 Bft)
15.09.2013 10:20 14,5 C 22,7 C 15,1 C 16,3 C 16,3 C 1,8 C 82 % 80 % 47 % 1009,9 hPa 0,0 l/m 3,9 km/h (1 Bft) W-SW 247 0 min 0,0 UV-I 11,5 C 16,3 C 2,1 km/h (1 Bft)
15.09.2013 10:25 14,5 C 22,7 C 15,1 C 16,1 C 16,1 C 1,6 C 81 % 80 % 42 % 1009,9 hPa 0,0 l/m 3,9 km/h (1 Bft) N-NO 22 0 min 0,0 UV-I 11,3 C 16,1 C 6,0 km/h (2 Bft)
15.09.2013 10:30 14,5 C 22,7 C 14,9 C 15,9 C 15,9 C 1,4 C 81 % 80 % 37 % 1009,9 hPa 0,0 l/m 3,9 km/h (1 Bft) SW 225 0 min 0,0 UV-I 11,3 C 15,9 C 4,5 km/h (1 Bft)
15.09.2013 10:35 14,4 C 22,7 C 15,0 C 15,7 C 15,7 C 1,3 C 81 % 80 % 34 % 1010,6 hPa 0,0 l/m 3,7 km/h (1 Bft) W 270 0 min 0,0 UV-I 11,2 C 15,7 C 3,4 km/h (1 Bft)
15.09.2013 10:40 14,4 C 22,7 C 14,9 C 15,6 C 15,6 C 1,2 C 82 % 80 % 32 % 1010,6 hPa 0,0 l/m 2,6 km/h (1 Bft) W-NW 292 0 min 0,0 UV-I 11,4 C 15,6 C 2,7 km/h (1 Bft)
15.09.2013 10:45 14,5 C 22,7 C 15,0 C 15,6 C 15,6 C 1,1 C 82 % 80 % 29 % 1010,6 hPa 0,0 l/m 2,7 km/h (1 Bft) W-SW 247 0 min 0,0 UV-I 11,5 C 15,6 C 4,0 km/h (1 Bft)
15.09.2013 10:50 14,5 C 22,7 C 15,0 C 15,6 C 15,6 C 1,1 C 82 % 80 % 29 % 1010,6 hPa 0,0 l/m 2,7 km/h (1 Bft) W-SW 247 0 min 0,0 UV-I 11,5 C 15,6 C 4,0 km/h (1 Bft)
15.09.2013 10:55 14,3 C 22,8 C 14,9 C 15,4 C 15,4 C 1,1 C 82 % 80 % 29 % 1010,1 hPa 0,0 l/m 3,5 km/h (1 Bft) SW 225 0 min 0,0 UV-I 11,3 C 15,4 C 7,1 km/h (2 Bft)
15.09.2013 11:00 14,2 C 22,7 C 14,9 C 15,2 C 15,2 C 1,0 C 83 % 81 % 26 % 1010,1 hPa 0,0 l/m 3,9 km/h (1 Bft) W-SW 247 0 min 0,0 UV-I 11,4 C 15,2 C 3,7 km/h (1 Bft)
15.09.2013 11:05 14,2 C 22,7 C 14,9 C 15,3 C 15,3 C 1,1 C 83 % 80 % 29 % 1010,1 hPa 0,0 l/m 2,9 km/h (1 Bft) W-SW 247 0 min 0,0 UV-I 11,4 C 15,3 C 3,1 km/h (1 Bft)
15.09.2013 11:10 14,3 C 22,7 C 15,1 C 15,4 C 15,4 C 1,1 C 83 % 80 % 29 % 1010,1 hPa 0,0 l/m 2,9 km/h (1 Bft) O 90 0 min 0,0 UV-I 11,5 C 15,4 C 1,8 km/h (1 Bft)
15.09.2013 11:15 14,3 C 22,7 C 15,2 C 15,6 C 15,6 C 1,3 C 83 % 80 % 34 % 1010,2 hPa 0,0 l/m 2,1 km/h (1 Bft) W-SW 247 0 min 0,0 UV-I 11,5 C 15,6 C 1,6 km/h (1 Bft)
15.09.2013 11:20 14,4 C 22,7 C 15,3 C 16,3 C 16,3 C 1,9 C 83 % 80 % 50 % 1010,2 hPa 0,0 l/m 0,8 km/h (0 Bft) W-SW 247 0 min 0,0 UV-I 11,5 C 16,3 C 2,4 km/h (1 Bft)
15.09.2013 11:25 14,7 C 22,6 C 15,6 C 17,0 C 17,0 C 2,3 C 83 % 81 % 61 % 1010,2 hPa 0,0 l/m 1,0 km/h (0 Bft) NW 315 0 min 0,0 UV-I 11,8 C 17,0 C 2,6 km/h (1 Bft)
15.09.2013 11:30 14,9 C 22,6 C 15,6 C 17,4 C 17,4 C 2,5 C 82 % 80 % 66 % 1010,2 hPa 0,0 l/m 1,8 km/h (1 Bft) SW 225 0 min 0,0 UV-I 11,9 C 17,4 C 3,1 km/h (1 Bft)
15.09.2013 11:35 15,1 C 22,5 C 15,7 C 17,5 C 17,5 C 2,4 C 81 % 80 % 63 % 1010,1 hPa 0,0 l/m 2,9 km/h (1 Bft) W-SW 247 0 min 0,0 UV-I 11,9 C 17,5 C 5,1 km/h (1 Bft)
15.09.2013 11:40 15,1 C 22,5 C 15,6 C 17,3 C 17,3 C 2,2 C 81 % 80 % 58 % 1010,1 hPa 0,0 l/m 2,7 km/h (1 Bft) W 270 0 min 0,0 UV-I 11,9 C 17,3 C 3,7 km/h (1 Bft)
15.09.2013 11:45 15,2 C 22,5 C 15,6 C 17,4 C 17,4 C 2,2 C 81 % 79 % 58 % 1010,1 hPa 0,0 l/m 1,9 km/h (1 Bft) W-SW 247 0 min 0,0 UV-I 12,0 C 17,4 C 0,0 km/h (0 Bft)
15.09.2013 11:50 15,3 C 22,5 C 15,6 C 17,4 C 17,4 C 2,1 C 80 % 79 % 55 % 1010,1 hPa 0,0 l/m 1,9 km/h (1 Bft) W-SW 247 0 min 0,0 UV-I 11,9 C 17,4 C 0,0 km/h (0 Bft)
15.09.2013 11:55 15,2 C 22,5 C 15,6 C 16,9 C 16,9 C 1,7 C 80 % 79 % 45 % 1010,1 hPa 0,0 l/m 2,7 km/h (1 Bft) SW 225 0 min 0,0 UV-I 11,8 C 16,9 C 3,9 km/h (1 Bft)
15.09.2013 12:00 15,2 C 22,5 C 15,6 C 16,7 C 16,7 C 1,5 C 80 % 80 % 39 % 1010,1 hPa 0,0 l/m 3,2 km/h (1 Bft) S 180 0 min 0,0 UV-I 11,8 C 16,7 C 2,9 km/h (1 Bft)
15.09.2013 12:05 15,3 C 22,5 C 15,6 C 16,8 C 16,8 C 1,5 C 80 % 80 % 39 % 1010,1 hPa 0,0 l/m 2,6 km/h (1 Bft) S-SO 157 0 min 0,0 UV-I 11,9 C 16,8 C 3,9 km/h (1 Bft)
15.09.2013 12:10 15,3 C 22,5 C 15,6 C 16,8 C 16,8 C 1,5 C 80 % 79 % 39 % 1010,1 hPa 0,0 l/m 1,1 km/h (1 Bft) S-SW 202 0 min 0,0 UV-I 11,9 C 16,8 C 0,0 km/h (0 Bft)
15.09.2013 12:15 15,3 C 22,5 C 15,6 C 16,8 C 16,8 C 1,5 C 80 % 79 % 39 % 1010,0 hPa 0,0 l/m 1,6 km/h (1 Bft) W 270 0 min 0,0 UV-I 11,9 C 16,8 C 4,5 km/h (1 Bft)
15.09.2013 12:20 15,3 C 22,5 C 15,8 C 16,9 C 16,9 C 1,6 C 79 % 79 % 42 % 1010,0 hPa 0,0 l/m 2,9 km/h (1 Bft) W 270 0 min 0,0 UV-I 11,7 C 16,9 C 2,3 km/h (1 Bft)
15.09.2013 12:25 15,4 C 22,5 C 15,9 C 17,0 C 17,0 C 1,6 C 79 % 79 % 42 % 1010,0 hPa 0,0 l/m 2,3 km/h (1 Bft) S-SO 157 0 min 0,0 UV-I 11,8 C 17,0 C 2,3 km/h (1 Bft)
15.09.2013 12:30 15,5 C 22,5 C 15,9 C 17,0 C 17,0 C 1,5 C 78 % 79 % 39 % 1010,0 hPa 0,0 l/m 1,8 km/h (1 Bft) SO 135 0 min 0,0 UV-I 11,7 C 17,0 C 0,0 km/h (0 Bft)
15.09.2013 12:35 15,6 C 22,5 C 16,0 C 17,4 C 17,4 C 1,8 C 79 % 79 % 47 % 1009,7 hPa 0,0 l/m 1,1 km/h (1 Bft) N-NW 337 0 min 0,0 UV-I 12,0 C 17,4 C 4,7 km/h (1 Bft)
15.09.2013 12:40 15,7 C 22,5 C 16,1 C 17,5 C 17,5 C 1,8 C 78 % 78 % 47 % 1009,7 hPa 0,0 l/m 2,1 km/h (1 Bft) S-SW 202 0 min 0,0 UV-I 11,9 C 17,5 C 5,1 km/h (1 Bft)
15.09.2013 12:45 15,9 C 22,5 C 16,1 C 17,5 C 17,5 C 1,6 C 78 % 78 % 42 % 1009,7 hPa 0,0 l/m 2,6 km/h (1 Bft) W 270 0 min 0,0 UV-I 12,1 C 17,5 C 3,9 km/h (1 Bft)
15.09.2013 12:50 15,9 C 22,5 C 16,3 C 17,7 C 17,7 C 1,8 C 78 % 78 % 47 % 1009,7 hPa 0,0 l/m 1,9 km/h (1 Bft) S 180 0 min 0,0 UV-I 12,1 C 17,7 C 3,2 km/h (1 Bft)
15.09.2013 12:55 15,9 C 22,5 C 16,3 C 18,1 C 18,1 C 2,2 C 78 % 78 % 58 % 1010,1 hPa 0,0 l/m 0,8 km/h (0 Bft) SO 135 0 min 0,0 UV-I 12,1 C 18,1 C 0,0 km/h (0 Bft)
15.09.2013 13:00 16,0 C 22,5 C 16,1 C 18,2 C 18,2 C 2,2 C 78 % 78 % 58 % 1010,1 hPa 0,0 l/m 0,5 km/h (0 Bft) W-SW 247 0 min 0,0 UV-I 12,2 C 18,2 C 0,0 km/h (0 Bft)
15.09.2013 13:05 16,1 C 22,5 C 16,0 C 18,1 C 18,1 C 2,0 C 78 % 78 % 53 % 1010,1 hPa 0,0 l/m 0,6 km/h (0 Bft) S-SO 157 0 min 0,0 UV-I 12,3 C 18,1 C 0,0 km/h (0 Bft)
15.09.2013 13:10 16,0 C 22,5 C 15,9 C 17,8 C 17,8 C 1,8 C 78 % 78 % 47 % 1010,1 hPa 0,0 l/m 0,6 km/h (0 Bft) O-SO 112 0 min 0,0 UV-I 12,2 C 17,8 C 1,6 km/h (1 Bft)
15.09.2013 13:15 15,9 C 22,5 C 15,8 C 17,3 C 17,3 C 1,4 C 77 % 79 % 37 % 1009,6 hPa 0,0 l/m 1,0 km/h (0 Bft) SW 225 0 min 0,0 UV-I 11,9 C 17,3 C 0,0 km/h (0 Bft)
15.09.2013 13:20 15,9 C 22,5 C 15,7 C 17,0 C 17,0 C 1,1 C 79 % 79 % 29 % 1009,6 hPa 0,0 l/m 0,8 km/h (0 Bft) S 180 0 min 0,0 UV-I 12,3 C 17,0 C 0,0 km/h (0 Bft)
15.09.2013 13:25 15,8 C 22,5 C 15,6 C 16,9 C 16,9 C 1,1 C 79 % 79 % 29 % 1009,6 hPa 0,0 l/m 0,3 km/h (0 Bft) S 180 0 min 0,0 UV-I 12,2 C 16,9 C 2,9 km/h (1 Bft)
15.09.2013 13:30 15,7 C 22,5 C 15,9 C 16,8 C 16,8 C 1,1 C 79 % 79 % 29 % 1009,6 hPa 0,0 l/m 1,1 km/h (1 Bft) S 180 0 min 0,0 UV-I 12,1 C 16,8 C 0,0 km/h (0 Bft)
15.09.2013 13:35 15,7 C 22,5 C 16,1 C 17,3 C 17,3 C 1,6 C 79 % 79 % 42 % 1009,5 hPa 0,0 l/m 1,1 km/h (1 Bft) S-SO 157 0 min 0,0 UV-I 12,1 C 17,3 C 0,0 km/h (0 Bft)
15.09.2013 13:40 15,9 C 22,5 C 16,3 C 18,2 C 18,2 C 2,3 C 79 % 79 % 61 % 1009,5 hPa 0,0 l/m 1,1 km/h (1 Bft) SW 225 0 min 0,0 UV-I 12,3 C 18,2 C 4,8 km/h (1 Bft)
15.09.2013 13:45 16,0 C 22,5 C 16,4 C 18,4 C 18,4 C 2,4 C 79 % 78 % 63 % 1009,5 hPa 0,0 l/m 1,1 km/h (1 Bft) W-SW 247 0 min 0,0 UV-I 12,4 C 18,4 C 0,0 km/h (0 Bft)
15.09.2013 13:50 16,1 C 22,5 C 16,2 C 18,6 C 18,6 C 2,5 C 78 % 78 % 66 % 1009,5 hPa 0,0 l/m 0,8 km/h (0 Bft) O-NO 67 0 min 0,0 UV-I 12,3 C 18,6 C 0,0 km/h (0 Bft)
15.09.2013 13:55 16,2 C 22,5 C 16,3 C 18,7 C 18,7 C 2,5 C 78 % 78 % 66 % 1009,4 hPa 0,0 l/m 0,2 km/h (0 Bft) S 180 0 min 0,0 UV-I 12,4 C 18,7 C 0,0 km/h (0 Bft)
15.09.2013 14:00 16,3 C 22,5 C 16,1 C 18,3 C 18,3 C 2,0 C 78 % 78 % 53 % 1009,4 hPa 0,0 l/m 0,5 km/h (0 Bft) N-NO 22 0 min 0,0 UV-I 12,5 C 18,3 C 0,0 km/h (0 Bft)
15.09.2013 14:05 16,2 C 22,5 C 16,1 C 18,1 C 18,1 C 1,9 C 78 % 78 % 50 % 1009,4 hPa 0,0 l/m 0,5 km/h (0 Bft) W-SW 247 0 min 0,0 UV-I 12,4 C 18,1 C 0,0 km/h (0 Bft)
15.09.2013 14:10 16,3 C 22,5 C 16,2 C 18,1 C 18,1 C 1,8 C 77 % 78 % 47 % 1009,4 hPa 0,0 l/m 0,3 km/h (0 Bft) SO 135 0 min 0,0 UV-I 12,3 C 18,1 C 2,1 km/h (1 Bft)
15.09.2013 14:15 16,3 C 22,5 C 16,2 C 18,1 C 18,1 C 1,8 C 78 % 78 % 47 % 1009,1 hPa 0,0 l/m 0,2 km/h (0 Bft) SW 225 0 min 0,0 UV-I 12,5 C 18,1 C 0,0 km/h (0 Bft)
15.09.2013 14:20 16,3 C 22,5 C 16,2 C 18,2 C 18,2 C 1,9 C 77 % 78 % 50 % 1009,1 hPa 0,0 l/m 0,5 km/h (0 Bft) SW 225 0 min 0,0 UV-I 12,3 C 18,2 C 1,9 km/h (1 Bft)
15.09.2013 14:25 16,3 C 22,5 C 16,3 C 18,2 C 18,2 C 1,9 C 77 % 78 % 50 % 1009,1 hPa 0,0 l/m 0,5 km/h (0 Bft) S-SO 157 0 min 0,0 UV-I 12,3 C 18,2 C 0,0 km/h (0 Bft)
15.09.2013 14:30 16,4 C 22,5 C 16,4 C 18,2 C 18,2 C 1,8 C 77 % 78 % 47 % 1009,1 hPa 0,0 l/m 0,5 km/h (0 Bft) SW 225 0 min 0,0 UV-I 12,4 C 18,2 C 0,0 km/h (0 Bft)
15.09.2013 14:35 16,5 C 22,5 C 16,4 C 18,3 C 18,3 C 1,8 C 77 % 78 % 47 % 1009,2 hPa 0,0 l/m 0,6 km/h (0 Bft) W 270 0 min 0,0 UV-I 12,5 C 18,3 C 2,6 km/h (1 Bft)
15.09.2013 14:40 16,4 C 22,5 C 16,4 C 18,3 C 18,3 C 1,9 C 77 % 78 % 50 % 1009,2 hPa 0,0 l/m 0,5 km/h (0 Bft) W-SW 247 0 min 0,0 UV-I 12,4 C 18,3 C 0,0 km/h (0 Bft)
15.09.2013 14:45 16,5 C 22,5 C 16,5 C 18,4 C 18,4 C 1,9 C 77 % 78 % 50 % 1009,2 hPa 0,0 l/m 0,6 km/h (0 Bft) S-SO 157 0 min 0,0 UV-I 12,5 C 18,4 C 0,0 km/h (0 Bft)
15.09.2013 14:50 16,7 C 22,5 C 16,9 C 19,0 C 19,0 C 2,3 C 77 % 78 % 61 % 1009,2 hPa 0,0 l/m 0,5 km/h (0 Bft) O-NO 67 0 min 0,0 UV-I 12,6 C 19,0 C 0,0 km/h (0 Bft)
15.09.2013 14:55 16,9 C 22,5 C 17,0 C 20,1 C 20,1 C 3,2 C 77 % 78 % 84 % 1008,9 hPa 0,0 l/m 1,0 km/h (0 Bft) S-SW 202 0 min 0,0 UV-I 12,8 C 20,1 C 3,9 km/h (1 Bft)
15.09.2013 15:00 16,9 C 22,5 C 17,1 C 20,0 C 20,0 C 3,1 C 76 % 77 % 82 % 1008,9 hPa 0,0 l/m 1,6 km/h (1 Bft) S-SO 157 0 min 0,0 UV-I 12,6 C 20,0 C 0,0 km/h (0 Bft)
15.09.2013 15:05 17,1 C 22,5 C 17,2 C 20,1 C 20,1 C 3,0 C 76 % 77 % 79 % 1008,9 hPa 0,0 l/m 1,1 km/h (1 Bft) NW 315 0 min 0,0 UV-I 12,8 C 20,1 C 1,9 km/h (1 Bft)
15.09.2013 15:10 17,1 C 22,5 C 17,2 C 20,1 C 20,1 C 3,0 C 75 % 77 % 79 % 1008,9 hPa 0,0 l/m 1,0 km/h (0 Bft) S 180 0 min 0,0 UV-I 12,6 C 20,1 C 0,0 km/h (0 Bft)
15.09.2013 15:15 17,3 C 22,5 C 17,2 C 20,1 C 20,1 C 2,8 C 75 % 76 % 74 % 1008,8 hPa 0,0 l/m 0,8 km/h (0 Bft) W-SW 247 0 min 0,0 UV-I 12,8 C 20,1 C 0,0 km/h (0 Bft)
15.09.2013 15:20 17,4 C 22,5 C 17,1 C 20,0 C 20,0 C 2,6 C 75 % 77 % 68 % 1008,8 hPa 0,0 l/m 0,2 km/h (0 Bft) SO 135 0 min 0,0 UV-I 12,9 C 20,0 C 0,0 km/h (0 Bft)
15.09.2013 15:25 17,3 C 22,5 C 17,0 C 19,7 C 19,7 C 2,4 C 74 % 76 % 63 % 1008,8 hPa 0,0 l/m 0,5 km/h (0 Bft) W-SW 247 0 min 0,0 UV-I 12,6 C 19,7 C 2,7 km/h (1 Bft)
15.09.2013 15:30 17,3 C 22,5 C 17,1 C 19,3 C 19,3 C 2,0 C 74 % 76 % 53 % 1008,8 hPa 0,0 l/m 0,5 km/h (0 Bft) NW 315 0 min 0,0 UV-I 12,6 C 19,3 C 0,0 km/h (0 Bft)
15.09.2013 15:35 17,2 C 22,5 C 16,8 C 18,8 C 18,8 C 1,6 C 73 % 76 % 42 % 1008,6 hPa 0,0 l/m 1,4 km/h (1 Bft) S 180 0 min 0,0 UV-I 12,3 C 18,8 C 1,8 km/h (1 Bft)
15.09.2013 15:40 17,1 C 22,5 C 16,7 C 18,0 C 18,0 C 0,9 C 74 % 77 % 24 % 1008,6 hPa 0,0 l/m 2,3 km/h (1 Bft) SW 225 0 min 0,0 UV-I 12,4 C 18,0 C 1,6 km/h (1 Bft)
15.09.2013 15:45 16,8 C 22,5 C 16,5 C 17,6 C 17,6 C 0,8 C 73 % 77 % 21 % 1008,6 hPa 0,0 l/m 1,9 km/h (1 Bft) W-SW 247 0 min 0,0 UV-I 11,9 C 17,6 C 5,1 km/h (1 Bft)
15.09.2013 15:50 16,4 C 22,5 C 16,4 C 17,3 C 17,3 C 0,9 C 74 % 77 % 24 % 1008,6 hPa 0,0 l/m 2,3 km/h (1 Bft) W 270 0 min 0,0 UV-I 11,8 C 17,3 C 4,8 km/h (1 Bft)
15.09.2013 15:55 16,4 C 22,5 C 16,3 C 17,0 C 17,0 C 0,6 C 74 % 77 % 16 % 1008,6 hPa 0,0 l/m 2,4 km/h (1 Bft) W-SW 247 0 min 0,0 UV-I 11,8 C 17,0 C 1,8 km/h (1 Bft)
15.09.2013 16:00 16,3 C 22,5 C 16,3 C 16,8 C 16,8 C 0,5 C 75 % 77 % 13 % 1008,6 hPa 0,0 l/m 1,8 km/h (1 Bft) S-SW 202 0 min 0,0 UV-I 11,9 C 16,8 C 2,3 km/h (1 Bft)
15.09.2013 16:05 16,3 C 22,5 C 16,3 C 16,8 C 16,8 C 0,5 C 75 % 77 % 13 % 1008,6 hPa 0,0 l/m 1,9 km/h (1 Bft) SW 225 0 min 0,0 UV-I 11,9 C 16,8 C 3,1 km/h (1 Bft)
15.09.2013 16:10 16,1 C 22,5 C 16,1 C 16,6 C 16,6 C 0,5 C 76 % 77 % 13 % 1008,6 hPa 0,0 l/m 2,6 km/h (1 Bft) SW 225 0 min 0,0 UV-I 11,9 C 16,6 C 5,1 km/h (1 Bft)
15.09.2013 16:15 16,1 C 22,5 C 16,1 C 16,5 C 16,5 C 0,4 C 76 % 77 % 11 % 1008,1 hPa 0,0 l/m 2,4 km/h (1 Bft) SW 225 0 min 0,0 UV-I 11,9 C 16,5 C 3,5 km/h (1 Bft)
15.09.2013 16:20 16,0 C 22,5 C 16,3 C 16,6 C 16,6 C 0,6 C 76 % 78 % 16 % 1008,1 hPa 0,0 l/m 1,6 km/h (1 Bft) S 180 0 min 0,0 UV-I 11,8 C 16,6 C 2,1 km/h (1 Bft)
15.09.2013 16:25 16,0 C 22,5 C 16,3 C 16,8 C 16,8 C 0,8 C 77 % 78 % 21 % 1008,1 hPa 0,0 l/m 1,0 km/h (0 Bft) SO 135 0 min 0,0 UV-I 12,0 C 16,8 C 0,0 km/h (0 Bft)
15.09.2013 16:30 16,1 C 22,5 C 16,2 C 17,0 C 17,0 C 0,9 C 77 % 78 % 24 % 1008,1 hPa 0,0 l/m 0,6 km/h (0 Bft) W 270 0 min 0,0 UV-I 12,1 C 17,0 C 3,1 km/h (1 Bft)
15.09.2013 16:35 16,3 C 22,5 C 16,2 C 17,1 C 17,1 C 0,8 C 77 % 78 % 21 % 1007,8 hPa 0,0 l/m 0,3 km/h (0 Bft) SO 135 0 min 0,0 UV-I 12,3 C 17,1 C 0,0 km/h (0 Bft)
15.09.2013 16:40 16,2 C 22,5 C 16,2 C 17,1 C 17,1 C 0,9 C 77 % 78 % 24 % 1007,8 hPa 0,0 l/m 0,2 km/h (0 Bft) S 180 0 min 0,0 UV-I 12,2 C 17,1 C 0,0 km/h (0 Bft)
15.09.2013 16:45 16,3 C 22,5 C 16,1 C 17,1 C 17,1 C 0,8 C 77 % 78 % 21 % 1007,8 hPa 0,0 l/m 0,3 km/h (0 Bft) W-NW 292 0 min 0,0 UV-I 12,3 C 17,1 C 0,0 km/h (0 Bft)
15.09.2013 16:50 16,3 C 22,5 C 16,1 C 17,0 C 17,0 C 0,7 C 77 % 78 % 18 % 1007,8 hPa 0,0 l/m 0,2 km/h (0 Bft) W 270 0 min 0,0 UV-I 12,3 C 17,0 C 0,0 km/h (0 Bft)
15.09.2013 16:55 16,3 C 22,5 C 15,9 C 16,9 C 16,9 C 0,6 C 77 % 78 % 16 % 1007,5 hPa 0,0 l/m 0,3 km/h (0 Bft) S 180 0 min 0,0 UV-I 12,3 C 16,9 C 0,0 km/h (0 Bft)
15.09.2013 17:00 16,2 C 22,5 C 15,9 C 16,6 C 16,6 C 0,4 C 77 % 79 % 11 % 1007,5 hPa 0,0 l/m 0,3 km/h (0 Bft) NW 315 0 min 0,0 UV-I 12,2 C 16,6 C 0,0 km/h (0 Bft)
15.09.2013 17:05 16,1 C 22,5 C 15,9 C 16,5 C 16,5 C 0,4 C 77 % 79 % 11 % 1007,5 hPa 0,0 l/m 0,2 km/h (0 Bft) NW 315 0 min 0,0 UV-I 12,1 C 16,5 C 0,0 km/h (0 Bft)
15.09.2013 17:10 16,0 C 22,5 C 15,8 C 16,5 C 16,5 C 0,5 C 77 % 79 % 13 % 1007,5 hPa 0,0 l/m 0,0 km/h (0 Bft) SW 225 0 min 0,0 UV-I 12,0 C 16,5 C 0,0 km/h (0 Bft)
15.09.2013 17:15 16,1 C 22,5 C 15,7 C 16,2 C 16,2 C 0,1 C 77 % 79 % 3 % 1007,7 hPa 0,0 l/m 0,2 km/h (0 Bft) W-SW 247 0 min 0,0 UV-I 12,1 C 16,2 C 1,8 km/h (1 Bft)
15.09.2013 17:20 15,9 C 22,5 C 15,6 C 16,1 C 16,1 C 0,2 C 78 % 79 % 5 % 1007,7 hPa 0,0 l/m 0,6 km/h (0 Bft) SW 225 0 min 0,0 UV-I 12,1 C 16,1 C 2,4 km/h (1 Bft)
15.09.2013 17:25 15,9 C 22,5 C 15,7 C 15,9 C 15,9 C 0,0 C 78 % 79 % 0 % 1007,7 hPa 0,0 l/m 1,0 km/h (0 Bft) SW 225 0 min 0,0 UV-I 12,1 C 15,9 C 3,1 km/h (1 Bft)
15.09.2013 17:30 15,9 C 22,5 C 15,5 C 15,9 C 15,9 C 0,0 C 78 % 79 % 0 % 1007,7 hPa 0,0 l/m 1,1 km/h (1 Bft) W 270 0 min 0,0 UV-I 12,1 C 15,9 C 0,0 km/h (0 Bft)
15.09.2013 17:35 15,9 C 22,5 C 15,6 C 15,9 C 15,8 C 0,0 C 78 % 79 % 0 % 1007,6 hPa 0,0 l/m 1,0 km/h (0 Bft) SW 225 0 min 0,0 UV-I 12,1 C 15,8 C 3,1 km/h (1 Bft)
15.09.2013 17:40 15,8 C 22,5 C 15,6 C 15,9 C 15,9 C 0,1 C 78 % 79 % 3 % 1007,6 hPa 0,0 l/m 0,6 km/h (0 Bft) O-SO 112 0 min 0,0 UV-I 12,0 C 15,9 C 0,0 km/h (0 Bft)
15.09.2013 17:45 15,9 C 22,5 C 15,6 C 16,0 C 16,0 C 0,1 C 78 % 79 % 3 % 1007,6 hPa 0,0 l/m 0,3 km/h (0 Bft) W-SW 247 0 min 0,0 UV-I 12,1 C 16,0 C 0,0 km/h (0 Bft)
15.09.2013 17:50 15,9 C 22,5 C 15,6 C 16,1 C 16,1 C 0,2 C 79 % 79 % 5 % 1007,6 hPa 0,0 l/m 0,0 km/h (0 Bft) W 270 0 min 0,0 UV-I 12,3 C 16,1 C 0,0 km/h (0 Bft)
15.09.2013 17:55 15,9 C 22,5 C 15,7 C 16,3 C 16,3 C 0,4 C 79 % 79 % 11 % 1007,6 hPa 0,0 l/m 0,0 km/h (0 Bft) SW 225 0 min 0,0 UV-I 12,3 C 16,3 C 0,0 km/h (0 Bft)
15.09.2013 18:00 15,9 C 22,5 C 15,7 C 16,4 C 16,4 C 0,5 C 79 % 79 % 13 % 1007,6 hPa 0,0 l/m 0,3 km/h (0 Bft) SW 225 0 min 0,0 UV-I 12,3 C 16,4 C 0,0 km/h (0 Bft)
15.09.2013 18:05 15,9 C 22,5 C 15,7 C 16,4 C 16,4 C 0,5 C 79 % 79 % 13 % 1007,6 hPa 0,0 l/m 0,3 km/h (0 Bft) W 270 0 min 0,0 UV-I 12,3 C 16,4 C 0,0 km/h (0 Bft)
15.09.2013 18:10 16,0 C 22,5 C 15,6 C 16,4 C 16,4 C 0,4 C 79 % 80 % 11 % 1007,6 hPa 0,0 l/m 0,0 km/h (0 Bft) N-NO 22 0 min 0,0 UV-I 12,4 C 16,4 C 0,0 km/h (0 Bft)
15.09.2013 18:15 16,0 C 22,5 C 15,7 C 16,3 C 16,3 C 0,3 C 79 % 80 % 8 % 1007,6 hPa 0,0 l/m 0,0 km/h (0 Bft) SW 225 0 min 0,0 UV-I 12,4 C 16,3 C 0,0 km/h (0 Bft)
15.09.2013 18:20 16,0 C 22,5 C 15,6 C 16,3 C 16,3 C 0,3 C 79 % 80 % 8 % 1007,6 hPa 0,0 l/m 0,0 km/h (0 Bft) O 90 0 min 0,0 UV-I 12,4 C 16,3 C 0,0 km/h (0 Bft)
15.09.2013 18:25 16,1 C 22,5 C 15,5 C 16,2 C 16,2 C 0,1 C 79 % 80 % 3 % 1007,6 hPa 0,0 l/m 0,0 km/h (0 Bft) SO 135 0 min 0,0 UV-I 12,5 C 16,2 C 0,0 km/h (0 Bft)
15.09.2013 18:30 16,1 C 22,5 C 15,5 C 16,1 C 16,1 C 0,0 C 79 % 80 % 0 % 1007,6 hPa 0,0 l/m 0,0 km/h (0 Bft) NO 45 0 min 0,0 UV-I 12,5 C 16,1 C 0,0 km/h (0 Bft)
15.09.2013 18:35 16,1 C 22,5 C 15,5 C 16,1 C 16,1 C 0,0 C 79 % 80 % 0 % 1007,4 hPa 0,0 l/m 0,0 km/h (0 Bft) SW 225 0 min 0,0 UV-I 12,5 C 16,1 C 0,0 km/h (0 Bft)
15.09.2013 18:40 16,0 C 22,6 C 15,5 C 16,0 C 15,9 C 0,0 C 79 % 80 % 0 % 1007,4 hPa 0,0 l/m 0,0 km/h (0 Bft) S-SO 157 0 min 0,0 UV-I 12,4 C 15,9 C 0,0 km/h (0 Bft)
15.09.2013 18:45 15,9 C 22,6 C 15,3 C 15,8 C 15,7 C 0,0 C 79 % 80 % 0 % 1007,4 hPa 0,0 l/m 0,0 km/h (0 Bft) SO 135 0 min 0,0 UV-I 12,3 C 15,7 C 0,0 km/h (0 Bft)
15.09.2013 18:50 15,9 C 22,6 C 15,2 C 15,8 C 15,6 C 0,0 C 79 % 80 % 0 % 1007,4 hPa 0,0 l/m 0,0 km/h (0 Bft) S-SO 157 0 min 0,0 UV-I 12,3 C 15,6 C 0,0 km/h (0 Bft)
15.09.2013 18:55 15,9 C 22,6 C 15,2 C 15,8 C 15,5 C 0,0 C 79 % 80 % 0 % 1007,2 hPa 0,0 l/m 0,0 km/h (0 Bft) S-SO 157 0 min 0,0 UV-I 12,3 C 15,5 C 0,0 km/h (0 Bft)
15.09.2013 19:00 15,7 C 22,6 C 15,2 C 15,6 C 15,3 C 0,0 C 80 % 80 % 0 % 1007,2 hPa 0,0 l/m 0,0 km/h (0 Bft) S 180 0 min 0,0 UV-I 12,3 C 15,3 C 0,0 km/h (0 Bft)
15.09.2013 19:05 15,6 C 22,6 C 15,1 C 15,5 C 15,2 C 0,0 C 80 % 81 % 0 % 1007,2 hPa 0,0 l/m 0,0 km/h (0 Bft) S-SO 157 0 min 0,0 UV-I 12,2 C 15,2 C 0,0 km/h (0 Bft)
15.09.2013 19:10 15,5 C 22,6 C 15,0 C 15,4 C 15,1 C 0,0 C 80 % 81 % 0 % 1007,2 hPa 0,0 l/m 0,0 km/h (0 Bft) W-SW 247 0 min 0,0 UV-I 12,1 C 15,1 C 0,0 km/h (0 Bft)
15.09.2013 19:15 15,5 C 22,6 C 14,9 C 15,3 C 15,0 C 0,0 C 80 % 81 % 0 % 1007,2 hPa 0,0 l/m 0,0 km/h (0 Bft) N 360 0 min 0,0 UV-I 12,1 C 15,0 C 0,0 km/h (0 Bft)
15.09.2013 19:20 15,4 C 22,7 C 14,9 C 15,3 C 15,0 C 0,0 C 80 % 81 % 0 % 1007,2 hPa 0,0 l/m 0,0 km/h (0 Bft) O-SO 112 0 min 0,0 UV-I 12,0 C 15,0 C 0,0 km/h (0 Bft)
15.09.2013 19:25 15,3 C 22,7 C 14,8 C 15,1 C 14,8 C 0,0 C 80 % 81 % 0 % 1007,2 hPa 0,0 l/m 0,0 km/h (0 Bft) S-SO 157 0 min 0,0 UV-I 11,9 C 14,8 C 0,0 km/h (0 Bft)
15.09.2013 19:30 15,2 C 22,7 C 14,9 C 15,0 C 14,7 C 0,0 C 81 % 81 % 0 % 1007,2 hPa 0,0 l/m 0,0 km/h (0 Bft) O-NO 67 0 min 0,0 UV-I 12,0 C 14,7 C 0,0 km/h (0 Bft)
15.09.2013 19:35 15,1 C 22,7 C 14,8 C 14,9 C 14,6 C 0,0 C 81 % 82 % 0 % 1007,1 hPa 0,0 l/m 0,0 km/h (0 Bft) O-NO 67 0 min 0,0 UV-I 11,9 C 14,6 C 0,0 km/h (0 Bft)
15.09.2013 19:40 15,0 C 22,7 C 14,7 C 14,9 C 14,6 C 0,0 C 81 % 82 % 0 % 1007,1 hPa 0,0 l/m 0,0 km/h (0 Bft) O 90 0 min 0,0 UV-I 11,8 C 14,6 C 0,0 km/h (0 Bft)
15.09.2013 19:45 14,9 C 22,7 C 14,6 C 14,8 C 14,5 C 0,0 C 82 % 82 % 0 % 1007,1 hPa 0,0 l/m 0,0 km/h (0 Bft) O-NO 67 0 min 0,0 UV-I 11,9 C 14,5 C 0,0 km/h (0 Bft)
15.09.2013 19:50 14,8 C 22,7 C 14,7 C 14,7 C 14,5 C 0,0 C 82 % 82 % 0 % 1007,1 hPa 0,0 l/m 0,0 km/h (0 Bft) O 90 0 min 0,0 UV-I 11,8 C 14,5 C 0,0 km/h (0 Bft)
15.09.2013 19:55 14,7 C 22,7 C 14,6 C 14,6 C 14,4 C 0,0 C 82 % 82 % 0 % 1007,2 hPa 0,0 l/m 0,0 km/h (0 Bft) O-NO 67 0 min 0,0 UV-I 11,7 C 14,4 C 0,0 km/h (0 Bft)
15.09.2013 20:00 14,7 C 22,7 C 14,5 C 14,6 C 14,4 C 0,0 C 83 % 82 % 0 % 1007,2 hPa 0,0 l/m 0,0 km/h (0 Bft) NO 45 0 min 0,0 UV-I 11,8 C 14,4 C 0,0 km/h (0 Bft)
15.09.2013 20:05 14,5 C 22,7 C 14,5 C 14,5 C 14,4 C 0,0 C 83 % 82 % 0 % 1007,2 hPa 0,0 l/m 0,0 km/h (0 Bft) O-NO 67 0 min 0,0 UV-I 11,6 C 14,4 C 0,0 km/h (0 Bft)
15.09.2013 20:10 14,4 C 22,7 C 14,5 C 14,4 C 14,3 C 0,0 C 83 % 82 % 0 % 1007,2 hPa 0,0 l/m 0,0 km/h (0 Bft) O-NO 67 0 min 0,0 UV-I 11,5 C 14,3 C 0,0 km/h (0 Bft)
15.09.2013 20:15 14,3 C 22,7 C 14,4 C 14,3 C 14,3 C 0,0 C 83 % 82 % 0 % 1007,1 hPa 0,0 l/m 0,0 km/h (0 Bft) O-NO 67 0 min 0,0 UV-I 11,5 C 14,3 C 0,0 km/h (0 Bft)
15.09.2013 20:20 14,3 C 22,8 C 14,4 C 14,3 C 14,3 C 0,0 C 83 % 82 % 0 % 1007,1 hPa 0,0 l/m 0,0 km/h (0 Bft) O-NO 67 0 min 0,0 UV-I 11,5 C 14,3 C 0,0 km/h (0 Bft)
15.09.2013 20:25 14,1 C 22,8 C 14,4 C 14,2 C 14,2 C 0,1 C 84 % 82 % 0 % 1007,1 hPa 0,0 l/m 0,0 km/h (0 Bft) O-NO 67 0 min 0,0 UV-I 11,4 C 14,2 C 0,0 km/h (0 Bft)
15.09.2013 20:30 14,1 C 22,7 C 14,4 C 14,2 C 14,2 C 0,1 C 84 % 82 % 0 % 1007,1 hPa 0,0 l/m 0,0 km/h (0 Bft) O-NO 67 0 min 0,0 UV-I 11,4 C 14,2 C 0,0 km/h (0 Bft)
15.09.2013 20:35 14,0 C 22,7 C 14,4 C 14,2 C 14,2 C 0,2 C 84 % 82 % 0 % 1007,1 hPa 0,0 l/m 0,0 km/h (0 Bft) N-NO 22 0 min 0,0 UV-I 11,3 C 14,2 C 0,0 km/h (0 Bft)
15.09.2013 20:40 13,9 C 22,8 C 14,3 C 14,0 C 14,0 C 0,1 C 84 % 82 % 0 % 1007,1 hPa 0,0 l/m 0,0 km/h (0 Bft) SW 225 0 min 0,0 UV-I 11,2 C 14,0 C 0,0 km/h (0 Bft)
15.09.2013 20:45 13,9 C 22,8 C 14,3 C 14,0 C 14,0 C 0,1 C 84 % 83 % 0 % 1007,1 hPa 0,0 l/m 0,0 km/h (0 Bft) SW 225 0 min 0,0 UV-I 11,2 C 14,0 C 0,0 km/h (0 Bft)
15.09.2013 20:50 13,9 C 22,8 C 14,3 C 13,9 C 13,9 C 0,0 C 84 % 83 % 0 % 1007,1 hPa 0,0 l/m 0,0 km/h (0 Bft) SW 225 0 min 0,0 UV-I 11,2 C 13,9 C 0,0 km/h (0 Bft)
15.09.2013 20:55 13,8 C 22,8 C 14,3 C 13,8 C 13,8 C 0,0 C 84 % 83 % 0 % 1007,2 hPa 0,0 l/m 0,0 km/h (0 Bft) W 270 0 min 0,0 UV-I 11,1 C 13,8 C 0,0 km/h (0 Bft)
15.09.2013 21:00 13,7 C 22,8 C 14,2 C 13,8 C 13,8 C 0,1 C 85 % 83 % 0 % 1007,2 hPa 0,0 l/m 0,0 km/h (0 Bft) NW 315 0 min 0,0 UV-I 11,2 C 13,8 C 0,0 km/h (0 Bft)
15.09.2013 21:05 13,6 C 22,8 C 14,2 C 13,8 C 13,8 C 0,2 C 85 % 83 % 0 % 1007,2 hPa 0,0 l/m 0,0 km/h (0 Bft) W-SW 247 0 min 0,0 UV-I 11,1 C 13,8 C 0,0 km/h (0 Bft)
15.09.2013 21:10 13,6 C 22,8 C 14,3 C 13,7 C 13,7 C 0,1 C 85 % 83 % 0 % 1007,2 hPa 0,0 l/m 0,0 km/h (0 Bft) NW 315 0 min 0,0 UV-I 11,1 C 13,7 C 0,0 km/h (0 Bft)
15.09.2013 21:15 13,5 C 22,8 C 14,2 C 13,6 C 13,6 C 0,1 C 85 % 83 % 0 % 1007,1 hPa 0,0 l/m 0,0 km/h (0 Bft) NW 315 0 min 0,0 UV-I 11,0 C 13,6 C 0,0 km/h (0 Bft)
15.09.2013 21:20 13,4 C 22,9 C 14,0 C 13,5 C 13,5 C 0,1 C 85 % 83 % 0 % 1007,1 hPa 0,0 l/m 0,0 km/h (0 Bft) NW 315 0 min 0,0 UV-I 10,9 C 13,5 C 0,0 km/h (0 Bft)
15.09.2013 21:25 13,5 C 22,9 C 14,0 C 13,5 C 13,4 C 0,0 C 85 % 83 % 0 % 1007,1 hPa 0,0 l/m 0,0 km/h (0 Bft) NW 315 0 min 0,0 UV-I 11,0 C 13,4 C 0,0 km/h (0 Bft)
15.09.2013 21:30 13,3 C 22,9 C 14,0 C 13,3 C 13,3 C 0,0 C 85 % 83 % 0 % 1007,1 hPa 0,0 l/m 0,0 km/h (0 Bft) O-NO 67 0 min 0,0 UV-I 10,8 C 13,3 C 0,0 km/h (0 Bft)
15.09.2013 21:35 13,2 C 22,9 C 13,9 C 13,2 C 13,2 C 0,0 C 85 % 83 % 0 % 1007,1 hPa 0,0 l/m 0,0 km/h (0 Bft) O-NO 67 0 min 0,0 UV-I 10,7 C 13,2 C 0,0 km/h (0 Bft)
15.09.2013 21:40 13,1 C 23,0 C 13,8 C 13,2 C 13,2 C 0,1 C 85 % 83 % 0 % 1007,1 hPa 0,0 l/m 0,0 km/h (0 Bft) O-NO 67 0 min 0,0 UV-I 10,6 C 13,2 C 0,0 km/h (0 Bft)
15.09.2013 21:45 13,1 C 23,0 C 13,9 C 13,1 C 13,1 C 0,0 C 86 % 83 % 0 % 1007,1 hPa 0,0 l/m 0,0 km/h (0 Bft) O-NO 67 0 min 0,0 UV-I 10,8 C 13,1 C 0,0 km/h (0 Bft)
15.09.2013 21:50 13,0 C 23,0 C 13,9 C 13,1 C 13,1 C 0,1 C 86 % 83 % 0 % 1007,1 hPa 0,0 l/m 0,0 km/h (0 Bft) O-NO 67 0 min 0,0 UV-I 10,7 C 13,1 C 0,0 km/h (0 Bft)
15.09.2013 21:55 12,9 C 23,0 C 13,8 C 13,0 C 13,0 C 0,1 C 86 % 83 % 0 % 1006,9 hPa 0,0 l/m 0,0 km/h (0 Bft) O-NO 67 0 min 0,0 UV-I 10,6 C 13,0 C 0,0 km/h (0 Bft)
15.09.2013 22:00 12,8 C 23,0 C 13,7 C 13,0 C 13,0 C 0,2 C 86 % 83 % 0 % 1006,9 hPa 0,0 l/m 0,0 km/h (0 Bft) O-NO 67 0 min 0,0 UV-I 10,5 C 13,0 C 0,0 km/h (0 Bft)
15.09.2013 22:05 12,9 C 23,0 C 13,7 C 13,0 C 13,0 C 0,1 C 86 % 83 % 0 % 1006,9 hPa 0,0 l/m 0,0 km/h (0 Bft) O-NO 67 0 min 0,0 UV-I 10,6 C 13,0 C 0,0 km/h (0 Bft)
15.09.2013 22:07 12,7 C 23,0 C 13,7 C 13,0 C 13,0 C 0,3 C 86 % 83 % 0 % 1006,9 hPa 0,0 l/m 0,0 km/h (0 Bft) O-NO 67 0 min 0,0 UV-I 10,4 C 13,0 C 0,0 km/h (0 Bft)
15.09.2013 22:12 12,6 C 23,0 C 13,6 C 13,0 C 13,0 C 0,4 C 87 % 83 % 0 % 1006,8 hPa 0,0 l/m 0,0 km/h (0 Bft) O-NO 67 0 min 0,0 UV-I 10,5 C 13,0 C 0,0 km/h (0 Bft)
15.09.2013 22:17 12,7 C 23,0 C 13,6 C 13,0 C 13,0 C 0,3 C 87 % 83 % 0 % 1006,8 hPa 0,0 l/m 0,0 km/h (0 Bft) O-NO 67 0 min 0,0 UV-I 10,6 C 13,0 C 0,0 km/h (0 Bft)
15.09.2013 22:22 12,6 C 23,0 C 13,7 C 12,9 C 12,9 C 0,3 C 87 % 83 % 0 % 1006,8 hPa 0,0 l/m 0,0 km/h (0 Bft) O-NO 67 0 min 0,0 UV-I 10,5 C 12,9 C 0,0 km/h (0 Bft)
15.09.2013 22:27 12,5 C 23,0 C 13,6 C 12,9 C 12,9 C 0,4 C 87 % 83 % 0 % 1006,8 hPa 0,0 l/m 0,0 km/h (0 Bft) O-NO 67 0 min 0,0 UV-I 10,4 C 12,9 C 0,0 km/h (0 Bft)
15.09.2013 22:29 12,5 C 23,0 C 13,6 C 12,9 C 12,9 C 0,4 C 87 % 83 % 0 % 1006,8 hPa 0,0 l/m 0,0 km/h (0 Bft) O-NO 67 0 min 0,0 UV-I 10,4 C 12,9 C 0,0 km/h (0 Bft)
15.09.2013 22:35 12,4 C 23,0 C 13,6 C 12,8 C 12,8 C 0,4 C 87 % 83 % 0 % 1006,8 hPa 0,0 l/m 0,0 km/h (0 Bft) O-NO 67 0 min 0,0 UV-I 10,3 C 12,8 C 0,0 km/h (0 Bft)
15.09.2013 22:40 12,5 C 23,0 C 13,5 C 12,8 C 12,8 C 0,3 C 87 % 83 % 0 % 1006,8 hPa 0,0 l/m 0,0 km/h (0 Bft) O-NO 67 0 min 0,0 UV-I 10,4 C 12,8 C 0,0 km/h (0 Bft)
15.09.2013 22:45 12,4 C 23,0 C 13,5 C 12,8 C 12,8 C 0,4 C 87 % 83 % 0 % 1006,8 hPa 0,0 l/m 0,0 km/h (0 Bft) O-NO 67 0 min 0,0 UV-I 10,3 C 12,8 C 0,0 km/h (0 Bft)
15.09.2013 22:50 12,3 C 23,0 C 13,5 C 12,8 C 12,8 C 0,5 C 87 % 83 % 0 % 1006,8 hPa 0,0 l/m 0,0 km/h (0 Bft) O-NO 67 0 min 0,0 UV-I 10,2 C 12,8 C 0,0 km/h (0 Bft)
15.09.2013 22:55 12,3 C 23,0 C 13,5 C 12,7 C 12,7 C 0,4 C 87 % 83 % 0 % 1007,2 hPa 0,0 l/m 0,0 km/h (0 Bft) O-NO 67 0 min 0,0 UV-I 10,2 C 12,7 C 0,0 km/h (0 Bft)
15.09.2013 23:00 12,3 C 23,0 C 13,5 C 12,7 C 12,7 C 0,4 C 87 % 83 % 0 % 1007,2 hPa 0,0 l/m 0,0 km/h (0 Bft) O-NO 67 0 min 0,0 UV-I 10,2 C 12,7 C 0,0 km/h (0 Bft)
15.09.2013 23:05 12,3 C 23,0 C 13,5 C 12,8 C 12,8 C 0,5 C 87 % 83 % 0 % 1007,2 hPa 0,0 l/m 0,0 km/h (0 Bft) O-NO 67 0 min 0,0 UV-I 10,2 C 12,8 C 0,0 km/h (0 Bft)
15.09.2013 23:10 12,3 C 23,0 C 13,5 C 12,8 C 12,8 C 0,5 C 87 % 83 % 0 % 1007,2 hPa 0,0 l/m 0,0 km/h (0 Bft) O-NO 67 0 min 0,0 UV-I 10,2 C 12,8 C 0,0 km/h (0 Bft)
15.09.2013 23:15 12,1 C 23,0 C 13,3 C 12,6 C 12,6 C 0,5 C 87 % 83 % 0 % 1006,6 hPa 0,0 l/m 0,0 km/h (0 Bft) O-NO 67 0 min 0,0 UV-I 10,0 C 12,6 C 0,0 km/h (0 Bft)
15.09.2013 23:20 12,1 C 23,0 C 13,3 C 12,3 C 12,3 C 0,2 C 87 % 83 % 0 % 1006,6 hPa 0,0 l/m 0,0 km/h (0 Bft) O-NO 67 0 min 0,0 UV-I 10,0 C 12,3 C 0,0 km/h (0 Bft)
15.09.2013 23:25 12,0 C 23,0 C 13,1 C 12,1 C 12,1 C 0,1 C 87 % 83 % 0 % 1006,6 hPa 0,0 l/m 0,0 km/h (0 Bft) O-NO 67 0 min 0,0 UV-I 9,9 C 12,1 C 0,0 km/h (0 Bft)
15.09.2013 23:30 11,9 C 23,0 C 13,0 C 11,9 C 11,9 C 0,0 C 87 % 83 % 0 % 1006,6 hPa 0,0 l/m 0,0 km/h (0 Bft) O-NO 67 0 min 0,0 UV-I 9,8 C 11,9 C 0,0 km/h (0 Bft)
15.09.2013 23:35 11,9 C 23,0 C 12,9 C 11,9 C 11,8 C 0,0 C 87 % 83 % 0 % 1006,7 hPa 0,0 l/m 0,0 km/h (0 Bft) O-NO 67 0 min 0,0 UV-I 9,8 C 11,8 C 0,0 km/h (0 Bft)
15.09.2013 23:40 11,8 C 23,0 C 12,8 C 11,8 C 11,8 C 0,0 C 87 % 83 % 0 % 1006,7 hPa 0,0 l/m 0,0 km/h (0 Bft) O 90 0 min 0,0 UV-I 9,7 C 11,8 C 0,0 km/h (0 Bft)
15.09.2013 23:45 11,7 C 23,0 C 12,9 C 11,8 C 11,8 C 0,1 C 88 % 83 % 0 % 1006,7 hPa 0,0 l/m 0,0 km/h (0 Bft) O 90 0 min 0,0 UV-I 9,8 C 11,8 C 0,0 km/h (0 Bft)
15.09.2013 23:50 11,6 C 23,0 C 12,8 C 11,8 C 11,8 C 0,2 C 88 % 83 % 0 % 1006,7 hPa 0,0 l/m 0,0 km/h (0 Bft) O-NO 67 0 min 0,0 UV-I 9,7 C 11,8 C 0,0 km/h (0 Bft)
15.09.2013 23:55 11,6 C 23,0 C 12,7 C 11,8 C 11,8 C 0,2 C 88 % 83 % 0 % 1006,3 hPa 0,0 l/m 0,0 km/h (0 Bft) O-NO 67 0 min 0,0 UV-I 9,7 C 11,8 C 0,0 km/h (0 Bft)
_ Min-Zeit 23:50 11:35 23:55 23:40 23:35 17:25 15:35 15:15 00:00 23:55 - 00:00 - - - 00:00 23:50 23:35 00:00
Minimum _ 11,6 C 22,5 C 12,7 C 11,8 C 11,8 C 0,0 C 73 % 76 % 0 % 1006,3 hPa - 0,0 km/h (0 Bft) - - - 0,0 UV-I 9,7 C 11,8 C 0,0 km/h (0 Bft)
_ Max-Zeit 15:20 01:20 15:05 14:55 14:55 14:55 03:50 00:15 14:55 00:00 00:00 04:25 - - 06:55 00:00 15:20 14:55 04:00
Maximum _ 17,4 C 23,3 C 17,2 C 20,1 C 20,1 C 3,2 C 88 % 83 % 84 % 1011,2 hPa 0,0 l/m 4,5 km/h
S-SW (1 Bft)
- - 5 min 0,0 UV-I 12,9 C 20,1 C 10,8 km/h
W (2 Bft)
Durchschnitt _ 14,7 C 22,8 C 15,1 C 15,4 C 15,4 C 0,8 C 83 % 81 % 16 % 1009,0 hPa #0,0 l/m 1,3 km/h (1 Bft) W-SW - #5 min. 0,0 UV-I 11,7 C 15,4 C 1,8 km/h (1 Bft)
2013 www.wetterstation-wechselburg.de